User: anonymous   Login
Location: Unspecified
(0.0000°N, 0.0000°E)
Time: 05:54:09
(UTC+00:00)
Language:

Megsat 1 - Orbit

View from above orbital plane
View from above orbital plane
View from above satellite
View from above satellite

Ground track
Ground track

The orbit data is extracted from the following two-line orbital elements,

1 26545U 00057A   19082.86149763 -.00000022  00000-0  15310-4 0  9997
2 26545  64.5533 247.1282 0038719 319.3366  40.4850 14.84959637    68
Epoch (UTC): 23 March 2019 20:40:33
Eccentricity: 0.0038719
inclination: 64.5533°
perigee height: 586 km
apogee height: 641 km
right ascension of ascending node: 247.1282°
argument of perigee: 319.3366°
revolutions per day: 14.84959637
mean anomaly at epoch: 40.4850°
orbit number at epoch: 6

The dashed part of the orbit path shows where the satellite is in the earth's shadow,  

DLR